STARLINK-34072

Satellite information

Favourite Embed

Satellite Type and Status

PAYLOADIN ORBIT

Key statistics

Satellite STARLINK-34072 at a glance.

Uptime

204

Days in orbit

Revolutions

≈ 15.3

Per day

Orbit

LEO

Low Earth Orbit

Inclination

53.2

Latest

Satellite identification and parameters

Extended collection of information and parameters for STARLINK-34072.

Object identification

Identified? True

Debris? False

Object name: STARLINK-34072

International designator: 2025-110F

Object number (NORAD): 64101

Object ID (CCSDS): 64101

Country: UNITED STATES OF AMERICA (US)

Current information (Y/N): Y

RCS size: LARGE

Orbital parameters

Period: 94.107 minutes

Inclination: 53.1596 deg

SMA: 6853.422 km

Apoapsis: 475.921 km

Periapsis: 474.653 km

RAAN: 73.071 deg

Eccentricy: 0.00009254

Argument of periapsis: 98.392 deg

Mean anomaly: 261.7186 deg

Mean motion: 15.30176623 rev/day

Mean motion (dot): 0.00063372 rev/day2

B* drag term: 0.0021351351 1/REarth

Two-line elements (TLE)

Creation date: Dec. 12, 2025, 10:14 a.m.

Reference frame: TEME

Reference center: EARTH

Epoch: Dec. 12, 2025, 6:11 a.m. UTC

TLE line 0: 0 STARLINK-34072

TLE line 1: 1 64101U 25110F 25346.25789249 .00063372 00000-0 21351-2 0 9992

TLE line 2: 2 64101 53.1596 73.0710 0000925 98.3920 261.7186 15.30176623 32491

Live tracking on map

Real-time ground track for satellite STARLINK-34072.

In-orbit conjunctions

There are no conjunctions computed for STARLINK-34072, at the moment. Check back to stay up to date, as we update our databases every day.

Go to all conjunctions

Associated space launch

A batch of 27 satellites for the Starlink mega-constellation - SpaceX's project for space-based Internet communication system.

STARLINK-34072 was lifted into orbit during the mission ‘Falcon 9 Block 5 | Starlink Group 11-16’, on board a Falcon 9 space rocket.

The launch took place on May 23, 2025, 10:32 p.m. from Space Launch Complex 4E.

For more information about the launch, click the button.

Launch to space Falcon 9 Block 5 | Starlink Group 11-16
Falcon 9 Block 5 | Starlink Group 11-16

Agency: SpaceX

Status: Launch Successful

Launch date: May 23, 2025, 10:32 p.m. UTC

Rocket: Falcon 9

Launch pad: Space Launch Complex 4E

Location: Vandenberg SFB, CA, USA

...

Latest news about this satellite

News about space launch
Launch Roundup: SpaceX to start new Starlink shell; China, Russia to launch unknown payloads

This week, SpaceX will begin building a new shell for its Starlink constellation, launching from… The post Launch Roundup: SpaceX to start new Starlink shell; China, Russia to launch unknown payloads appeared first on NASASpaceFlight.com.


Newsletter sign-up

Weekly statistics, charts and insights to help you stay on top of the space industry.